IAM7VH EKCH-EDDH

Flight info

Callsign IAM7VH
Flight time N/A
Altitude 24000
Route NEXEN T503 MICOS N850 BOGMU BOGMU5A
Aircraft A320/M-SDE3FGHIJ5RWY/LB1

Departure

Time 2026-05-05 10:44
Airport Copenhagen Kastrup Airport (EKCH)

Arrival

Time N/A
Airport Hamburg Helmut Schmidt Airport (EDDH)
Time Latitude Longitude Altitude Speed Heading
2026-05-05 09:37 55.61936 12.66630 17 ft 0 kts 348°
2026-05-05 10:32 55.61924 12.66634 18 ft 3 kts 348°
2026-05-05 10:32 55.61907 12.66640 18 ft 2 kts 348°
2026-05-05 10:32 55.61890 12.66646 18 ft 2 kts 348°
2026-05-05 10:32 55.61874 12.66653 17 ft 3 kts 350°
2026-05-05 10:33 55.61856 12.66663 20 ft 3 kts 316°
2026-05-05 10:33 55.61851 12.66672 17 ft 0 kts 301°
2026-05-05 10:35 55.61854 12.66661 18 ft 4 kts 300°
2026-05-05 10:35 55.61858 12.66603 17 ft 5 kts 261°
2026-05-05 10:36 55.61852 12.66551 17 ft 4 kts 260°
2026-05-05 10:36 55.61848 12.66506 17 ft 3 kts 257°
2026-05-05 10:36 55.61839 12.66454 18 ft 8 kts 244°
2026-05-05 10:36 55.61779 12.66409 18 ft 10 kts 192°
2026-05-05 10:37 55.61719 12.66370 19 ft 9 kts 207°
2026-05-05 10:37 55.61665 12.66283 19 ft 14 kts 237°
2026-05-05 10:37 55.61642 12.66121 22 ft 13 kts 268°
2026-05-05 10:37 55.61662 12.65956 22 ft 15 kts 294°
2026-05-05 10:38 55.61718 12.65808 24 ft 15 kts 306°
2026-05-05 10:38 55.61733 12.65769 25 ft 0 kts 306°
2026-05-05 10:38 55.61735 12.65764 24 ft 3 kts 305°
2026-05-05 10:39 55.61779 12.65644 21 ft 17 kts 303°
2026-05-05 10:39 55.61846 12.65464 18 ft 19 kts 302°
2026-05-05 10:39 55.61922 12.65254 17 ft 21 kts 302°
2026-05-05 10:39 55.61996 12.65046 18 ft 13 kts 302°
2026-05-05 10:40 55.62000 12.64939 20 ft 8 kts 225°
2026-05-05 10:40 55.61952 12.64881 20 ft 10 kts 209°
2026-05-05 10:40 55.61879 12.64802 19 ft 14 kts 214°
2026-05-05 10:40 55.61798 12.64708 20 ft 12 kts 213°
2026-05-05 10:41 55.61732 12.64630 21 ft 12 kts 214°
2026-05-05 10:41 55.61621 12.64503 23 ft 21 kts 212°
2026-05-05 10:41 55.61489 12.64348 23 ft 27 kts 214°
2026-05-05 10:41 55.61334 12.64174 20 ft 26 kts 213°
2026-05-05 10:42 55.61016 12.63804 23 ft 28 kts 213°
2026-05-05 10:42 55.60887 12.63658 21 ft 14 kts 213°
2026-05-05 10:42 55.60803 12.63592 21 ft 12 kts 181°
2026-05-05 10:43 55.60746 12.63669 22 ft 11 kts 133°
2026-05-05 10:43 55.60700 12.63779 22 ft 14 kts 118°
2026-05-05 10:43 55.60766 12.64017 26 ft 44 kts 41°
2026-05-05 10:43 55.61176 12.64647 19 ft 109 kts 41°
2026-05-05 10:44 55.61890 12.65742 28 ft 159 kts 41°
2026-05-05 10:44 55.62741 12.67045 595 ft 163 kts 39°
2026-05-05 10:44 55.63594 12.68366 1376 ft 165 kts 39°
2026-05-05 10:44 55.64505 12.69784 1783 ft 185 kts 39°
2026-05-05 10:45 55.65536 12.71376 2105 ft 209 kts 38°
2026-05-05 10:45 55.66711 12.73137 2489 ft 233 kts 38°
2026-05-05 10:45 55.68010 12.75067 3058 ft 252 kts 38°
2026-05-05 10:45 55.69210 12.77395 3887 ft 262 kts 57°
2026-05-05 10:46 55.69828 12.80480 4745 ft 272 kts 82°
2026-05-05 10:46 55.69663 12.83847 5575 ft 279 kts 109°
2026-05-05 10:46 55.68688 12.86837 6405 ft 283 kts 136°
2026-05-05 10:46 55.67087 12.88811 7193 ft 281 kts 161°
2026-05-05 10:47 55.65247 12.90012 8054 ft 283 kts 165°
2026-05-05 10:47 55.63356 12.90971 8909 ft 282 kts 176°
2026-05-05 10:47 55.61433 12.91045 9753 ft 279 kts 192°
2026-05-05 10:47 55.59549 12.90218 10302 ft 287 kts 206°
2026-05-05 10:48 55.57778 12.88395 10541 ft 304 kts 222°
2026-05-05 10:48 55.56245 12.85700 10990 ft 315 kts 229°
2026-05-05 10:48 55.54714 12.82871 11706 ft 320 kts 228°
2026-05-05 10:48 55.53154 12.80029 12480 ft 323 kts 228°
2026-05-05 10:49 55.51575 12.77171 13227 ft 326 kts 228°
2026-05-05 10:49 55.50058 12.74238 13940 ft 328 kts 231°
2026-05-05 10:49 55.48569 12.71152 14592 ft 331 kts 232°
2026-05-05 10:49 55.47094 12.67999 15243 ft 334 kts 232°
2026-05-05 10:50 55.45616 12.64818 15879 ft 337 kts 232°
2026-05-05 10:50 55.44111 12.61599 16519 ft 340 kts 232°
2026-05-05 10:50 55.42594 12.58387 17152 ft 343 kts 232°
2026-05-05 10:50 55.41050 12.55145 17784 ft 346 kts 231°
2026-05-05 10:51 55.39493 12.51889 18383 ft 349 kts 231°
2026-05-05 10:51 55.37918 12.48610 18935 ft 352 kts 231°
2026-05-05 10:51 55.36331 12.45315 19509 ft 354 kts 231°
2026-05-05 10:51 55.34752 12.42045 20076 ft 356 kts 231°
2026-05-05 10:52 55.33122 12.38672 20656 ft 359 kts 231°
2026-05-05 10:52 55.31503 12.35326 21234 ft 361 kts 231°
2026-05-05 10:52 55.29873 12.31951 21790 ft 363 kts 231°
2026-05-05 10:52 55.28261 12.28608 22319 ft 365 kts 231°
2026-05-05 10:53 55.26612 12.25195 22839 ft 368 kts 231°
2026-05-05 10:53 55.24948 12.21769 23350 ft 370 kts 230°
2026-05-05 10:53 55.23270 12.18325 23780 ft 373 kts 230°
2026-05-05 10:53 55.21580 12.14860 23920 ft 374 kts 230°
2026-05-05 10:54 55.19754 12.11629 23957 ft 374 kts 221°
2026-05-05 10:54 55.17670 12.08890 23957 ft 374 kts 218°
2026-05-05 10:54 55.15565 12.06200 23954 ft 374 kts 218°
2026-05-05 10:54 55.13453 12.03500 23954 ft 374 kts 218°
2026-05-05 10:55 55.11347 12.00811 23955 ft 374 kts 218°
2026-05-05 10:55 55.09271 11.98161 23962 ft 375 kts 218°
2026-05-05 10:55 55.07161 11.95471 23964 ft 375 kts 218°
2026-05-05 10:55 55.05045 11.92818 23949 ft 376 kts 215°
2026-05-05 10:56 55.02653 11.90923 23955 ft 382 kts 198°
2026-05-05 10:56 54.99986 11.90431 23954 ft 391 kts 180°
2026-05-05 10:56 54.97313 11.91544 23940 ft 403 kts 161°